Time,TemperatureF,DewpointF,PressureIn,WindDirection,WindDirectionDegrees,WindSpeedMPH,WindSpeedGustMPH,Humidity,HourlyPrecipIn,Conditions,Clouds,dailyrainin,SolarRadiationWatts/m^2,SoftwareType,DateUTC
2013-05-02 00:00:00,68.0,53.0,-100.00,ESE,112,2.0,-999.0,59,-99.99,,,-99.99,0.000000,,2013-05-02 04:00:00,
2013-05-02 00:43:00,68.0,53.0,-100.00,ESE,112,2.0,-999.0,59,-99.99,,,-99.99,0.000000,,2013-05-02 04:43:00,
2013-05-02 00:52:00,68.0,53.0,-100.00,ESE,112,2.0,-999.0,59,-99.99,,,-99.99,0.000000,,2013-05-02 04:52:00,
2013-05-02 01:00:00,67.0,53.0,-100.00,ESE,112,2.0,-999.0,62,-99.99,,,-99.99,0.000000,,2013-05-02 05:00:00,
2013-05-02 01:42:00,67.0,53.0,-100.00,ESE,112,2.0,-999.0,62,-99.99,,,-99.99,0.000000,,2013-05-02 05:42:00,
2013-05-02 01:52:00,67.0,53.0,-100.00,ESE,112,2.0,-999.0,62,-99.99,,,-99.99,0.000000,,2013-05-02 05:52:00,
2013-05-02 04:00:00,64.0,54.0,-100.00,ESE,112,3.0,-999.0,68,-99.99,,,-99.99,0.000000,,2013-05-02 08:00:00,
2013-05-02 04:42:00,64.0,54.0,-100.00,ESE,112,3.0,-999.0,68,-99.99,,,-99.99,0.000000,,2013-05-02 08:42:00,
2013-05-02 04:52:00,64.0,54.0,-100.00,ESE,112,3.0,-999.0,68,-99.99,,,-99.99,0.000000,,2013-05-02 08:52:00,
2013-05-02 05:00:00,63.0,54.0,-100.00,ESE,112,3.0,-999.0,72,-99.99,,,-99.99,0.000000,,2013-05-02 09:00:00,
2013-05-02 05:42:00,63.0,54.0,-100.00,ESE,112,3.0,-999.0,72,-99.99,,,-99.99,0.000000,,2013-05-02 09:42:00,
2013-05-02 05:52:00,63.0,54.0,-100.00,ESE,112,3.0,-999.0,72,-99.99,,,-99.99,0.000000,,2013-05-02 09:52:00,
2013-05-02 06:00:00,62.0,54.0,-100.00,ESE,112,3.0,-999.0,77,-99.99,,,-99.99,0.000000,,2013-05-02 10:00:00,
2013-05-02 06:42:00,62.0,54.0,-100.00,ESE,112,3.0,-999.0,77,-99.99,,,-99.99,0.000000,,2013-05-02 10:42:00,
2013-05-02 06:53:00,62.0,54.0,-100.00,ESE,112,3.0,-999.0,77,-99.99,,,-99.99,0.000000,,2013-05-02 10:53:00,
2013-05-02 09:00:00,66.0,55.0,-100.00,SE,135,3.0,-999.0,68,-99.99,,,-99.99,233.160004,,2013-05-02 13:00:00,
2013-05-02 09:42:00,66.0,55.0,-100.00,SE,135,3.0,-999.0,68,-99.99,,,-99.99,233.160004,,2013-05-02 13:42:00,
2013-05-02 09:52:00,66.0,55.0,-100.00,SE,135,3.0,-999.0,68,-99.99,,,-99.99,233.160004,,2013-05-02 13:52:00,
2013-05-02 10:00:00,70.0,55.0,-100.00,SSE,157,5.0,-999.0,58,-99.99,,,-99.99,396.720001,,2013-05-02 14:00:00,
2013-05-02 10:43:00,70.0,55.0,-100.00,SSE,157,5.0,-999.0,58,-99.99,,,-99.99,396.720001,,2013-05-02 14:43:00,
2013-05-02 10:52:00,70.0,55.0,-100.00,SSE,157,5.0,-999.0,58,-99.99,,,-99.99,396.720001,,2013-05-02 14:52:00,
2013-05-02 11:00:00,73.0,55.0,-100.00,South,180,5.0,-999.0,52,-99.99,,,-99.99,539.400024,,2013-05-02 15:00:00,
2013-05-02 11:43:00,73.0,55.0,-100.00,South,180,5.0,-999.0,52,-99.99,,,-99.99,539.400024,,2013-05-02 15:43:00,
2013-05-02 12:00:00,77.0,55.0,-100.00,SSW,202,4.0,-999.0,46,-99.99,,,-99.99,658.880005,,2013-05-02 16:00:00,
2013-05-02 12:43:00,77.0,55.0,-100.00,SSW,202,4.0,-999.0,46,-99.99,,,-99.99,658.880005,,2013-05-02 16:43:00,
2013-05-02 12:52:00,77.0,55.0,-100.00,SSW,202,4.0,-999.0,46,-99.99,,,-99.99,658.880005,,2013-05-02 16:52:00,
2013-05-02 13:00:00,79.0,53.0,-100.00,SSW,202,4.0,-999.0,41,-99.99,,,-99.99,748.200012,,2013-05-02 17:00:00,
2013-05-02 13:42:00,79.0,53.0,-100.00,SSW,202,4.0,-999.0,41,-99.99,,,-99.99,748.200012,,2013-05-02 17:42:00,
2013-05-02 13:52:00,79.0,53.0,-100.00,SSW,202,4.0,-999.0,41,-99.99,,,-99.99,748.200012,,2013-05-02 17:52:00,
2013-05-02 14:00:00,75.0,51.0,-100.00,WNW,292,8.0,-999.0,43,-99.99,,,-99.99,520.840027,,2013-05-02 18:00:00,
2013-05-02 14:42:00,75.0,51.0,-100.00,WNW,292,8.0,-999.0,43,-99.99,,,-99.99,520.840027,,2013-05-02 18:42:00,
2013-05-02 14:52:00,75.0,51.0,-100.00,WNW,292,8.0,-999.0,43,-99.99,,,-99.99,520.840027,,2013-05-02 18:52:00,
2013-05-02 15:00:00,73.0,50.0,-100.00,NW,315,6.0,-999.0,45,-99.99,,,-99.99,365.399994,,2013-05-02 19:00:00,
2013-05-02 15:42:00,73.0,50.0,-100.00,NW,315,6.0,-999.0,45,-99.99,,,-99.99,365.399994,,2013-05-02 19:42:00,
2013-05-02 15:52:00,73.0,50.0,-100.00,NW,315,6.0,-999.0,45,-99.99,,,-99.99,365.399994,,2013-05-02 19:52:00,
2013-05-02 16:00:00,67.0,48.0,-100.00,WNW,292,8.0,-999.0,51,-99.99,,,-99.99,418.760010,,2013-05-02 20:00:00,
2013-05-02 16:42:00,67.0,48.0,-100.00,WNW,292,8.0,-999.0,51,-99.99,,,-99.99,418.760010,,2013-05-02 20:42:00,
2013-05-02 16:52:00,67.0,48.0,-100.00,WNW,292,8.0,-999.0,51,-99.99,,,-99.99,418.760010,,2013-05-02 20:52:00,
2013-05-02 17:00:00,58.0,46.0,-100.00,NW,315,8.0,-999.0,63,-99.99,,,-99.99,365.399994,,2013-05-02 21:00:00,
2013-05-02 17:42:00,58.0,46.0,-100.00,NW,315,8.0,-999.0,63,-99.99,,,-99.99,365.399994,,2013-05-02 21:42:00,
2013-05-02 17:53:00,58.0,46.0,-100.00,NW,315,8.0,-999.0,63,-99.99,,,-99.99,365.399994,,2013-05-02 21:53:00,
2013-05-02 19:00:00,56.0,45.0,-100.00,WNW,292,7.0,-999.0,65,-99.99,,,-99.99,265.640015,,2013-05-02 23:00:00,
2013-05-02 19:42:00,56.0,45.0,-100.00,WNW,292,7.0,-999.0,65,-99.99,,,-99.99,265.640015,,2013-05-02 23:42:00,
2013-05-02 19:52:00,56.0,45.0,-100.00,WNW,292,7.0,-999.0,65,-99.99,,,-99.99,265.640015,,2013-05-02 23:52:00,
2013-05-02 21:00:00,53.0,44.0,-100.00,WNW,292,3.0,-999.0,71,-99.99,,,-99.99,5.800000,,2013-05-03 01:00:00,
2013-05-02 21:42:00,53.0,44.0,-100.00,WNW,292,3.0,-999.0,71,-99.99,,,-99.99,5.800000,,2013-05-03 01:42:00,
2013-05-02 21:52:00,53.0,44.0,-100.00,WNW,292,3.0,-999.0,71,-99.99,,,-99.99,5.800000,,2013-05-03 01:52:00,
2013-05-02 22:00:00,51.0,43.0,-100.00,WNW,292,4.0,-999.0,75,-99.99,,,-99.99,0.000000,,2013-05-03 02:00:00,
2013-05-02 22:42:00,51.0,43.0,-100.00,WNW,292,4.0,-999.0,75,-99.99,,,-99.99,0.000000,,2013-05-03 02:42:00,
2013-05-02 22:52:00,51.0,43.0,-100.00,WNW,292,4.0,-999.0,75,-99.99,,,-99.99,0.000000,,2013-05-03 02:52:00,
2013-05-02 23:00:00,47.0,42.0,-100.00,WNW,292,5.0,-999.0,81,-99.99,,,-99.99,0.000000,,2013-05-03 03:00:00,
2013-05-02 23:43:00,47.0,42.0,-100.00,WNW,292,5.0,-999.0,81,-99.99,,,-99.99,0.000000,,2013-05-03 03:43:00,
2013-05-02 23:53:00,47.0,42.0,-100.00,WNW,292,5.0,-999.0,81,-99.99,,,-99.99,0.000000,,2013-05-03 03:53:00,